Theta_e
307 306 306 306 306 306 306 306 306 307 305 304 302 302 301 302 301 300 296 297 294 288 289 290 291 289 289 289 286 288 289 290 291 287 286 285 283 287 286 288 286 285 284 283 285 282 279 296 295 287 293 296 296 298
307 306 306 305 305 305 305 306 306 307 305 304 303 302 301 302 301 300 295 298 298 291 289 293 293 294 294 293 291 291 289 289 292 290 289 289 286 288 286 282 291 285 289 286 287 288 296 297 296 299 299 298 299 298
307 306 305 305 304 304 305 305 306 306 305 304 303 301 302 302 302 301 298 299 295 290 289 288 290 294 296 296 297 289 292 293 293 297 291 289 284 288 283 286 287 291 293 288 288 293 294 298 299 301 301 299 299 298
307 306 305 305 303 304 304 305 306 306 305 304 302 301 302 302 302 301 297 298 295 291 283 290 296 295 299 297 296 296 295 298 298 299 291 291 287 293 288 290 288 291 292 290 289 293 296 297 299 300 299 299 298 298
306 306 305 304 302 303 304 305 306 306 305 304 302 302 302 302 301 301 300 299 298 291 286 289 295 296 298 298 296 295 293 291 291 292 291 289 292 292 293 291 289 292 288 286 287 293 294 296 300 300 298 297 298 296
306 305 305 304 303 303 304 305 305 306 305 304 302 302 301 301 301 296 293 298 298 296 288 285 296 295 297 297 297 295 295 292 293 292 292 294 297 293 288 285 294 293 294 294 294 300 300 300 299 298 296 297 297 297
306 305 305 303 303 303 303 303 305 306 305 303 302 301 301 301 299 293 292 298 298 298 290 287 289 295 296 297 300 298 296 294 294 292 291 293 294 294 288 286 290 291 293 295 300 300 295 296 294 298 298 297 298 298
305 305 303 303 302 302 302 302 304 306 304 301 300 301 301 301 301 295 300 301 299 294 293 286 287 290 296 295 295 300 294 294 296 295 296 293 294 291 286 289 289 291 293 299 300 299 297 297 297 297 297 296 294 294
305 304 303 303 302 302 301 303 304 305 301 299 300 301 301 297 292 297 304 303 301 295 289 288 285 285 296 294 296 297 298 292 298 293 293 292 290 285 287 287 287 290 293 298 298 298 297 296 295 296 295 295 292 292
304 304 303 303 302 302 302 303 304 301 298 298 298 296 293 296 302 305 299 295 294 294 294 287 291 287 292 293 292 293 295 292 289 292 295 289 288 289 289 289 290 292 295 300 294 294 296 295 294 295 295 295 294 293
305 304 303 303 303 302 302 303 302 298 297 292 290 291 294 298 297 293 290 289 290 287 290 290 290 288 294 288 289 293 290 292 287 288 289 286 285 287 290 289 290 292 295 299 302 298 299 297 295 295 295 296 295 294
304 304 303 303 303 302 302 302 299 295 292 292 292 295 295 294 289 286 285 289 288 286 291 289 291 291 293 294 291 292 288 290 285 292 289 283 286 289 288 289 290 292 293 296 301 302 299 298 297 296 296 295 295 295
304 303 303 303 302 302 303 300 298 297 298 296 292 290 290 289 284 283 282 286 286 291 293 292 288 290 292 292 290 289 285 285 291 287 284 285 288 288 289 289 289 292 293 295 298 300 303 299 298 297 296 296 296 295
304 303 303 303 302 302 301 299 298 297 294 290 289 283 285 284 286 288 287 286 289 291 290 288 287 288 290 290 290 284 289 289 282 279 279 286 286 287 289 290 289 290 293 294 297 300 301 298 298 297 297 297 295 294
303 303 302 302 302 302 300 299 299 296 292 289 289 282 284 290 289 289 289 289 290 291 289 287 289 290 287 285 285 285 282 279 280 279 284 285 287 287 288 289 289 291 292 295 296 299 301 299 298 297 298 298 296 295
303 302 300 302 302 300 299 298 296 294 292 290 289 285 287 286 285 287 288 288 291 290 289 290 287 285 282 283 281 277 278 275 280 283 285 286 286 287 288 290 291 292 293 294 295 298 300 298 298 297 298 297 296 295
301 297 302 302 300 298 298 293 292 289 289 288 286 290 288 288 287 288 290 291 292 289 286 287 283 280 285 280 276 280 279 282 284 286 286 287 287 288 290 291 291 292 292 293 293 295 299 300 300 298 296 297 297 296
295 301 301 300 297 295 293 293 291 290 286 289 286 288 289 289 290 290 292 292 292 289 288 286 288 283 280 278 278 282 286 288 288 286 287 288 288 289 290 290 291 291 291 292 291 293 295 297 297 296 297 297 297 296
300 299 299 297 294 291 287 289 291 287 289 289 289 289 291 290 291 292 291 290 291 290 289 287 283 282 281 286 284 286 287 287 285 287 287 288 288 288 289 290 291 290 291 290 289 291 293 295 295 296 297 296 296 296
300 298 297 297 297 293 290 290 294 289 287 289 290 289 290 289 289 290 289 289 288 287 285 284 284 285 286 287 289 289 289 289 286 285 286 287 288 288 288 289 290 291 291 290 289 289 291 292 293 294 297 295 295 295
297 296 297 295 291 292 291 291 289 290 290 288 290 290 287 289 287 287 287 288 287 284 283 286 287 289 291 291 291 290 289 289 287 286 286 286 288 288 287 288 289 289 288 288 287 287 289 289 290 292 295 297 296 296
293 295 292 292 289 289 289 292 290 291 289 289 289 290 287 286 285 286 287 286 285 286 287 288 289 290 290 289 290 290 290 289 288 289 289 289 286 286 286 287 287 286 286 286 287 287 288 289 289 291 293 296 296 297
294 293 291 291 287 287 287 293 288 288 285 286 289 286 286 286 287 289 284 285 286 288 289 290 291 292 291 291 289 287 286 285 286 287 287 288 287 286 287 287 287 286 284 285 287 287 287 287 288 288 290 294 296 296
295 289 286 285 287 284 289 286 289 288 287 285 285 284 285 285 287 286 284 284 286 288 288 289 290 289 289 288 286 286 285 285 288 288 287 286 284 284 285 286 287 287 285 285 286 286 286 287 287 287 287 288 291 293
284 284 286 282 287 285 284 284 285 286 283 285 284 284 285 288 284 283 284 285 285 286 288 289 290 289 288 287 286 285 285 285 285 286 285 285 284 284 284 285 286 286 286 284 284 284 285 286 286 286 286 286 286 288
280 284 283 284 284 284 285 282 283 284 285 284 285 287 288 286 283 283 285 286 286 287 288 289 288 287 287 288 286 285 285 285 286 285 284 285 283 281 281 281 282 283 286 285 284 283 283 284 284 285 285 286 285 286
279 281 285 289 288 288 286 287 288 286 284 283 285 285 285 282 282 285 285 286 286 289 290 290 289 289 287 285 285 285 286 285 284 285 285 285 285 284 282 280 280 283 285 286 285 283 282 282 282 283 284 285 286 286
284 285 281 285 285 287 285 285 284 283 285 288 288 284 283 284 283 286 287 287 289 290 289 289 290 289 287 286 285 285 284 285 285 285 285 285 285 284 283 283 283 282 284 285 283 284 283 282 282 282 282 283 284 286
283 286 286 283 284 285 285 285 286 287 288 289 286 283 282 282 283 286 286 287 289 287 285 285 285 286 284 284 284 284 285 284 283 280 280 280 281 282 282 282 282 283 284 284 283 282 282 281 281 281 282 283 284 285
283 287 284 284 282 282 286 288 286 287 286 286 284 283 282 282 283 287 287 287 286 286 286 286 285 284 283 283 282 282 283 283 283 282 280 279 280 281 281 281 281 282 283 283 283 283 281 282 282 282 282 283 283 282
287 286 284 284 283 287 286 287 287 286 285 283 284 283 281 282 284 284 284 285 285 285 285 284 283 284 284 283 283 282 281 283 282 282 282 282 282 281 280 280 281 282 282 282 282 281 280 280 280 279 279 279 279 280
285 283 283 281 283 287 290 287 284 283 283 282 282 283 282 281 279 282 284 285 284 283 282 284 283 283 284 285 284 283 282 282 282 282 281 281 281 280 280 280 280 282 281 281 280 280 279 278 278 277 277 276 277 277
284 285 286 285 285 285 286 284 282 281 282 281 281 281 280 279 277 281 284 285 285 284 283 284 284 284 284 284 283 282 282 282 280 278 278 278 277 277 279 279 279 280 280 279 279 279 277 276 276 275 275 274 274 275
Wind_Speed
18 14 12 14 14 13 10 10 9 8 5 4 6 6 6 6 5 2 1 3 1 3 7 5 4 5 3 3 3 3 4 2 2 4 3 3 3 3 4 3 2 2 3 4 4 6 7 2 7 5 11 20 20 22
19 18 18 16 13 12 10 10 10 8 6 4 7 6 6 6 4 1 1 2 2 3 5 3 14 17 17 10 2 2 3 2 1 2 2 2 2 3 4 3 0 2 4 3 4 5 6 11 16 14 20 20 21 21
20 19 18 15 14 12 11 10 10 9 6 5 7 6 7 7 6 3 2 1 2 3 5 4 5 2 9 16 12 4 2 2 2 2 1 1 3 1 3 3 4 4 2 4 4 4 12 17 17 18 19 19 20 22
21 20 19 15 12 13 13 11 10 10 6 6 6 6 7 8 7 4 2 2 1 2 3 3 3 7 3 7 15 16 5 1 4 2 2 3 3 4 3 6 7 5 4 6 8 16 17 10 17 18 18 20 21 22
23 22 21 19 17 16 15 11 11 9 8 6 6 6 7 7 6 3 3 4 5 2 3 6 11 2 3 6 11 12 12 7 3 3 3 2 2 3 3 4 4 1 3 3 5 15 16 17 20 21 20 22 23 20
23 23 22 20 19 17 14 11 9 11 8 6 5 7 6 6 4 1 2 3 5 4 2 4 4 4 4 6 7 9 9 5 3 3 3 3 3 4 2 3 6 14 17 15 8 18 17 17 18 21 23 23 18 19
24 24 23 21 19 17 14 11 12 13 9 5 5 7 6 7 3 4 2 2 8 3 2 4 4 2 4 3 1 3 7 3 3 3 3 3 2 4 2 2 18 21 21 21 20 12 14 16 20 21 22 19 19 17
24 25 24 22 21 18 15 14 14 12 7 3 4 8 7 7 5 5 4 11 7 2 2 3 4 4 4 3 1 1 3 2 4 2 2 1 1 2 2 18 21 21 22 16 17 12 12 14 19 22 17 15 17 15
25 26 25 24 23 21 18 16 13 9 5 1 6 9 1 2 3 2 5 12 3 1 2 2 3 3 4 2 2 2 3 3 2 2 1 2 2 6 9 16 19 20 15 19 14 13 14 18 21 20 18 15 14 14
26 27 26 24 23 21 18 16 12 9 4 3 1 2 3 4 1 12 3 4 4 3 2 3 1 3 2 2 2 3 1 2 3 2 3 2 3 4 8 12 12 17 18 19 14 16 15 16 19 20 17 14 13 14
26 26 26 25 23 21 19 15 15 11 3 2 3 2 1 4 1 1 2 3 2 2 3 3 4 4 0 3 3 2 3 2 3 2 1 2 2 13 19 20 18 18 19 20 17 14 14 13 16 18 18 16 14 14
25 26 26 24 23 21 19 17 18 5 3 3 2 2 1 2 2 3 4 3 4 3 4 3 2 4 2 2 3 2 2 2 2 4 2 2 6 18 17 18 17 18 20 21 20 18 16 12 14 15 13 14 14 14
26 25 26 24 24 21 17 20 14 11 8 2 2 3 3 3 5 6 7 4 3 4 4 3 1 1 2 1 3 2 3 3 3 2 3 3 11 15 16 16 19 20 20 21 21 19 16 13 13 14 14 12 12 13
25 26 26 24 21 16 22 21 17 9 2 4 5 5 6 5 5 4 3 3 2 3 3 2 1 0 1 1 2 3 2 1 2 3 3 6 15 17 17 15 15 19 20 20 18 18 16 11 11 13 14 13 13 14
26 26 24 21 17 23 22 20 15 2 3 4 4 5 7 2 1 3 2 3 2 3 2 3 3 0 2 1 2 2 1 3 3 2 4 9 14 15 16 16 16 17 17 16 16 16 18 13 12 14 13 14 13 14
26 22 9 19 22 25 22 16 3 1 2 3 4 3 1 4 3 3 2 3 2 3 2 1 2 3 2 1 3 2 1 1 2 3 7 9 11 13 13 14 14 14 15 15 14 15 15 12 12 13 13 13 12 13
15 2 21 25 27 26 20 4 3 5 4 4 3 2 1 2 4 3 2 3 2 3 2 2 2 2 3 3 1 0 2 1 4 6 6 9 11 13 12 14 14 14 15 15 15 16 15 14 11 12 15 16 14 9
4 18 32 30 21 13 1 2 3 5 5 5 3 4 2 2 5 4 3 2 2 3 2 2 3 3 3 4 3 3 2 2 3 5 6 9 11 12 10 13 14 14 13 14 15 14 14 15 14 11 12 11 12 12
16 21 33 29 10 6 5 4 3 4 5 2 2 3 3 4 3 5 5 4 4 3 5 2 3 3 3 2 4 3 2 2 5 6 5 8 10 11 11 12 13 14 13 13 13 11 10 13 11 11 9 9 8 8
30 31 27 19 5 3 5 3 3 2 4 3 3 4 3 4 4 4 4 3 2 2 3 2 2 3 4 4 3 3 1 2 4 5 5 6 8 10 9 10 8 11 9 11 8 12 10 10 10 11 10 9 8 8
16 15 15 4 0 1 1 3 3 3 3 3 5 4 4 3 3 3 3 1 2 2 3 2 5 6 6 6 4 3 3 3 4 4 5 5 7 8 8 7 10 9 9 8 9 9 11 9 10 11 11 10 8 7
8 9 3 2 1 2 1 2 1 3 2 4 5 3 4 3 4 3 3 2 2 2 3 5 7 7 7 7 5 4 3 3 4 3 4 4 7 7 8 8 7 8 10 9 9 9 9 8 10 11 10 11 9 6
13 3 2 2 2 1 1 2 3 4 4 6 3 4 3 3 3 4 2 1 2 2 4 6 8 8 8 9 7 6 5 5 3 4 5 5 5 6 6 7 7 8 10 9 9 9 9 11 11 10 9 11 10 9
5 3 3 4 4 4 3 3 1 3 3 4 4 4 4 3 4 2 3 3 3 5 6 9 8 7 7 6 4 4 4 3 2 3 5 5 6 7 7 7 7 7 8 9 8 9 10 10 13 9 9 10 12 11
5 2 4 4 3 3 5 4 3 3 4 4 5 4 4 4 3 4 3 4 7 8 7 7 7 7 5 5 4 4 4 3 3 3 4 4 5 5 6 6 6 7 9 10 11 12 12 11 11 12 11 9 11 13
4 5 6 6 4 4 5 5 6 6 3 4 3 5 3 4 4 4 3 7 7 8 8 8 7 6 6 4 5 3 3 3 1 3 4 4 5 7 8 8 8 8 9 10 11 13 14 13 13 15 13 13 11 12
3 4 2 2 1 3 3 2 2 4 4 3 5 4 4 5 5 2 2 3 4 6 8 7 6 6 7 7 6 4 3 3 3 2 3 3 3 5 6 7 9 9 10 11 11 12 13 13 14 14 13 11 10 9
1 2 5 4 2 1 3 3 3 4 4 3 6 6 7 2 3 2 2 3 7 9 7 6 5 7 8 7 6 5 4 3 4 4 3 3 4 4 8 6 7 10 8 9 10 10 11 12 12 12 13 13 12 10
2 2 4 4 2 2 2 2 2 2 3 2 4 3 4 3 3 1 3 6 8 8 8 8 6 8 8 6 6 4 4 4 5 7 7 5 5 6 8 7 7 8 8 9 8 7 12 11 10 11 12 10 10 11
3 3 2 4 4 3 2 2 3 2 4 4 4 4 4 3 5 3 6 7 7 7 6 7 8 8 7 6 6 5 4 4 5 4 5 5 5 6 7 8 8 8 8 9 10 10 11 11 8 9 10 10 10 10
2 2 3 3 3 1 6 7 6 4 4 4 5 4 7 4 3 6 5 4 7 7 8 8 6 5 5 5 4 3 3 3 3 4 3 3 4 6 7 7 6 6 7 8 9 9 11 10 11 12 13 15 16 14
3 4 2 2 3 5 4 3 3 3 3 3 3 3 3 3 4 2 3 2 6 7 5 6 7 5 4 4 4 5 6 4 4 4 6 5 5 7 7 6 6 6 7 7 8 8 11 12 11 13 13 16 16 17
1 2 2 3 3 4 3 4 3 3 3 2 3 3 3 3 4 3 2 4 2 5 7 7 7 6 7 6 6 5 4 5 7 6 6 6 6 6 5 6 6 6 7 7 7 8 10 12 11 14 14 15 16 17
Wind_Direction
213 208 217 235 241 241 243 257 263 262 263 296 297 309 320 327 339 129 338 206 323 267 277 244 223 218 222 226 263 352 263 140 324 35 356 3 328 5 293 278 271 241 200 223 239 244 266 92 318 316 298 290 291 298
208 206 202 216 233 242 238 247 255 247 245 274 288 299 303 309 314 120 264 196 206 236 274 258 269 256 244 238 290 272 322 272 20 329 24 311 323 315 325 300 105 289 233 275 242 268 318 309 287 289 288 294 307 305
209 204 203 196 207 236 240 242 249 241 238 263 279 292 297 300 291 240 233 225 203 274 283 282 224 180 220 228 223 248 221 252 183 233 297 258 261 253 284 266 296 279 203 240 302 255 279 300 302 299 305 307 307 304
206 204 193 187 208 229 232 227 247 234 233 252 274 282 289 292 292 276 237 175 192 277 285 276 314 290 238 195 199 219 269 70 298 236 243 247 250 205 259 278 270 269 296 266 254 277 305 300 303 306 313 307 313 310
201 198 197 185 199 223 224 215 237 233 225 243 261 281 287 296 299 295 244 219 210 244 299 294 304 239 238 205 212 209 223 235 268 276 222 239 240 251 240 267 259 354 262 280 302 298 294 297 309 318 314 312 317 310
202 194 190 185 194 214 209 207 231 237 219 231 266 288 294 296 310 274 239 169 187 192 250 294 334 266 289 265 253 217 208 190 208 224 248 239 205 190 254 261 14 338 317 309 293 304 302 302 319 327 320 319 316 310
202 192 182 184 192 201 189 207 241 236 214 207 257 283 284 275 202 230 332 75 161 153 242 287 285 274 313 296 164 120 165 186 187 218 225 242 216 204 260 321 333 324 318 309 307 330 333 341 327 325 333 320 319 314
199 184 179 182 192 196 185 212 238 235 205 199 283 289 283 256 244 264 224 179 153 201 254 284 282 293 6 321 330 172 169 216 198 240 204 203 59 17 335 337 322 321 318 303 340 350 345 328 336 335 329 326 322 318
194 188 185 185 189 189 192 209 230 205 162 18 309 295 79 132 203 227 127 167 170 299 309 258 293 318 348 329 277 252 234 216 168 232 182 98 45 50 316 311 313 316 318 328 332 352 349 349 341 338 330 332 334 331
194 190 184 184 187 188 196 207 214 147 118 304 267 202 205 190 258 128 186 169 197 184 220 253 287 278 311 303 283 278 216 242 230 179 101 82 100 6 324 317 309 324 332 337 338 342 339 342 343 338 336 334 339 340
194 189 184 185 185 184 199 217 147 126 104 125 196 213 39 306 135 147 186 232 161 221 198 237 239 274 207 278 300 307 313 314 258 92 203 88 37 348 344 337 338 337 338 344 350 331 333 338 343 339 337 339 338 339
189 185 180 180 180 185 202 171 138 119 148 164 124 96 158 164 169 204 196 196 204 229 181 213 237 217 255 261 268 304 305 271 352 317 88 66 3 348 340 334 334 335 340 341 341 338 328 337 350 348 340 342 346 337
187 183 175 174 175 187 191 147 138 132 139 137 173 167 184 160 201 205 182 185 201 186 190 195 233 231 189 227 259 270 302 13 289 39 64 62 351 339 340 334 335 336 338 340 339 341 336 335 355 -0 352 349 345 349
181 173 171 169 174 189 153 146 152 153 140 193 174 184 213 183 224 193 178 149 139 151 147 169 162 7 38 222 338 271 16 289 70 55 33 2 345 336 332 335 336 334 338 334 336 335 343 345 354 3 359 355 352 357
169 166 164 167 177 152 144 148 158 155 177 217 184 210 204 216 93 126 114 123 114 108 128 132 120 259 42 85 10 278 51 76 44 25 352 339 333 331 330 333 335 336 334 338 336 337 351 350 355 1 3 359 5 5
157 148 159 156 152 137 140 143 114 170 239 230 227 217 174 158 132 147 149 126 115 104 126 141 116 108 60 32 45 58 110 142 7 4 332 324 326 330 327 328 332 334 337 342 343 344 353 355 356 0 8 15 14 10
119 134 153 143 133 135 132 114 168 204 228 213 229 210 205 127 146 136 147 128 121 169 148 143 135 100 121 70 95 324 128 43 335 332 333 325 331 332 330 331 338 342 346 347 346 351 351 3 5 14 13 7 14 12
86 137 132 131 125 114 75 200 209 204 223 220 209 174 152 78 125 128 125 124 151 120 149 101 127 145 134 153 192 172 113 351 337 340 340 339 339 336 338 343 342 349 349 347 347 349 351 2 2 359 356 5 8 12
139 134 134 133 133 123 150 186 222 217 209 186 145 121 106 102 62 93 96 87 82 90 117 115 125 138 159 147 151 146 98 5 347 344 341 359 349 340 345 343 344 352 356 353 346 346 348 356 353 347 341 354 6 5
132 138 135 133 146 146 154 159 198 206 183 155 121 131 110 108 114 108 95 79 77 88 92 116 121 124 136 131 129 117 86 12 351 343 354 358 357 347 349 341 343 344 350 354 346 347 350 354 358 348 345 342 352 6
109 131 126 94 143 265 238 149 169 201 139 143 127 123 103 126 121 126 113 100 86 97 133 134 126 122 126 128 130 113 86 12 3 345 332 328 348 350 350 349 349 353 354 354 350 351 0 354 340 338 341 353 350 354
110 105 100 220 185 172 236 216 113 124 119 130 133 124 129 149 143 143 134 109 132 128 157 147 143 143 144 143 128 84 54 8 3 19 2 348 356 357 354 350 348 356 358 357 343 346 350 348 340 336 344 344 350 359
98 108 103 73 95 153 205 162 173 171 141 158 138 117 134 132 115 141 98 129 136 150 152 142 145 149 134 125 114 90 56 23 24 27 11 360 5 0 352 355 357 2 357 353 345 342 344 341 344 340 341 346 356 356
90 87 127 157 184 176 169 177 174 129 114 165 162 122 136 122 158 203 172 185 158 151 153 151 147 133 132 132 113 74 49 24 46 71 29 4 6 7 359 356 360 9 360 349 345 347 347 347 346 353 348 354 353 352
100 145 143 171 202 155 159 148 141 173 155 151 133 135 146 153 154 189 205 168 165 171 162 158 162 160 151 131 123 93 59 27 26 48 39 15 2 2 7 5 4 5 3 348 353 352 349 349 348 351 349 356 349 345
109 183 177 180 156 182 148 146 186 188 151 144 113 113 154 146 171 209 201 166 168 172 166 165 160 150 133 131 128 105 59 31 71 78 57 29 28 14 2 359 356 1 3 347 346 346 345 346 345 345 344 346 344 339
122 184 188 261 153 118 99 123 136 175 182 153 148 150 164 176 209 137 99 159 152 150 157 154 151 142 133 127 114 102 87 57 43 85 94 51 54 33 10 356 349 343 335 340 347 346 342 340 340 339 335 333 335 334
76 153 155 165 109 84 148 157 154 175 171 151 158 170 178 161 109 99 62 128 134 125 115 105 107 126 132 129 123 118 85 83 77 117 159 91 58 35 10 354 348 333 328 347 340 339 343 338 334 334 333 329 325 330
127 103 85 111 86 241 237 191 159 65 7 182 131 105 101 57 8 7 108 132 121 117 119 117 108 113 107 105 96 88 72 49 53 57 45 27 5 11 359 353 349 349 342 340 334 337 341 333 327 331 329 327 326 327
128 111 120 153 174 208 85 25 77 67 47 69 101 112 92 57 22 56 128 136 133 130 129 132 140 144 142 143 131 110 69 57 53 42 21 16 357 340 342 347 347 348 342 343 342 344 348 340 350 353 350 349 349 343
122 120 145 145 166 80 120 108 90 64 50 58 39 83 107 121 73 42 49 90 116 123 125 128 127 136 141 143 146 144 122 88 64 57 32 359 354 353 352 346 343 339 347 348 349 353 354 353 356 354 352 353 352 349
153 162 134 123 103 147 126 67 75 69 61 76 91 85 96 93 88 67 23 108 127 120 113 132 132 117 101 96 90 78 73 91 55 27 13 5 0 358 352 351 343 349 355 357 0 2 2 3 359 357 352 353 352 350
142 167 154 164 145 173 117 105 85 92 77 81 81 67 57 71 96 102 71 16 74 130 129 116 112 110 108 108 102 98 90 85 79 59 40 22 10 1 354 2 353 1 5 10 13 10 11 7 5 2 360 357 356 356